Weather History for Hearne, TX

Change the Weather History Date:

Thursday, October 10, 2013

  Actual Average (KCLL) Record (KCLL)
Temperature  
Mean Temperature 71 °F 73 °F  
Max Temperature 85 °F 83 °F 97 °F (1926)
Min Temperature 58 °F 62 °F 42 °F (1990)
Degree Days  
Heating Degree Days 0 0  
Month to date heating degree days 0  
Since 1 July heating degree days 2  
Cooling Degree Days 6 8  
Month to date cooling degree days 92  
Year to date cooling degree days 2888  
Growing Degree Days 21 (Base 50)    
Moisture  
Dew Point 60 °F    
Average Humidity 68    
Maximum Humidity 94    
Minimum Humidity 42    
Precipitation  
Precipitation 0.00 in 0.16 in 2.32 in (2006)
Month to date precipitation 1.48  
Year to date precipitation 30.18  
Sea Level Pressure  
Sea Level Pressure 30.00 in    
Wind  
Wind Speed 4 mph (SE)    
Max Wind Speed 12 mph    
Max Gust Speed 16 mph    
Visibility 10 miles    
Events      
T = Trace of Precipitation, MM = Missing Value Source: NWS Daily Summary

Daily Weather History Graph

Daily Weather History Graph

Search for Another Location

Airport:

Trip Planner

Search our weather history database for the weather conditions in past years. The results will help you decide how hot, cold, wet, or windy it might be!

Date:

Astronomy

Oct. 10, 2013 Rise Set
Actual Time 7:25 AM CDT 7:00 PM CDT
Civil Twilight 7:01 AM CDT 7:24 PM CDT
Nautical Twilight 6:33 AM CDT 7:52 PM CDT
Astronomical Twilight 6:05 AM CDT 8:20 PM CDT
Moon 1:04 PM CDT (10/10) 11:53 PM CDT (10/10)
Length of Visible Light 12h 22m
Length of Day
11h 34m
Waxing Crescent, 36% of the Moon is Illuminated
Oct 10
Waxing Crescent
Oct 11
First Quarter
Oct 18
Full
Oct 26
Last Quarter
Nov 3
New

Hourly Weather History & Observations

Time (CDT) Temp. Heat Index Dew Point Humidity Pressure Visibility Wind Dir Wind Speed Gust Speed Precip Events Conditions
12:15 AM 66.0 °F - 56.5 °F 71% 30.04 in 10.0 mi ESE 3.5 mph - N/A   Clear
12:35 AM 63.0 °F - 56.7 °F 80% 30.04 in 10.0 mi SE 3.5 mph - N/A   Clear
12:55 AM 63.1 °F - 56.7 °F 79% 30.04 in 10.0 mi SE 3.5 mph - N/A   Clear
1:15 AM 63.9 °F - 56.7 °F 77% 30.04 in 10.0 mi ESE 4.6 mph - N/A   Clear
1:35 AM 63.7 °F - 57.0 °F 79% 30.05 in 10.0 mi ESE 4.6 mph - N/A   Clear
1:55 AM 63.5 °F - 57.4 °F 80% 30.05 in 10.0 mi ESE 3.5 mph - N/A   Clear
2:15 AM 63.5 °F - 58.1 °F 83% 30.05 in 10.0 mi ESE 4.6 mph - N/A   Clear
2:35 AM 63.5 °F - 58.3 °F 83% 30.05 in 10.0 mi ESE 3.5 mph - N/A   Clear
2:55 AM 63.5 °F - 58.6 °F 84% 30.05 in 10.0 mi ESE 3.5 mph - N/A   Clear
3:15 AM 63.5 °F - 59.0 °F 85% 30.05 in 10.0 mi ESE 4.6 mph - N/A   Clear
3:35 AM 63.1 °F - 59.0 °F 86% 30.04 in 10.0 mi East 3.5 mph - N/A   Clear
3:55 AM 62.6 °F - 58.6 °F 87% 30.04 in 10.0 mi East 3.5 mph - N/A   Clear
4:15 AM 62.6 °F - 58.6 °F 87% 30.04 in 10.0 mi East 3.5 mph - N/A   Clear
4:35 AM 62.2 °F - 58.8 °F 89% 30.03 in 10.0 mi ESE 3.5 mph - N/A   Clear
4:55 AM 61.7 °F - 58.3 °F 89% 30.03 in 10.0 mi Calm Calm - N/A   Clear
5:15 AM 61.0 °F - 58.1 °F 90% 30.04 in 10.0 mi Calm Calm - N/A   Clear
5:35 AM 60.8 °F - 58.1 °F 91% 30.04 in 10.0 mi Calm Calm - N/A   Clear
5:55 AM 60.3 °F - 57.7 °F 91% 30.04 in 10.0 mi Calm Calm - N/A   Clear
6:15 AM 59.9 °F - 57.6 °F 92% 30.04 in 10.0 mi Calm Calm - N/A   Clear
6:35 AM 59.4 °F - 57.0 °F 92% 30.05 in 10.0 mi Calm Calm - N/A   Clear
6:55 AM 58.6 °F - 56.8 °F 94% 30.04 in 7.0 mi Calm Calm - N/A   Clear
7:15 AM 59.0 °F - 57.2 °F 94% 30.04 in 10.0 mi Calm Calm - N/A   Clear
7:35 AM 58.6 °F - 56.7 °F 93% 30.05 in 7.0 mi ENE 3.5 mph - N/A   Clear
7:55 AM 59.5 °F - 57.6 °F 93% 30.05 in 7.0 mi Calm Calm - N/A   Clear
8:15 AM 61.7 °F - 59.2 °F 91% 30.05 in 10.0 mi ENE 3.5 mph - N/A   Scattered Clouds
8:35 AM 63.7 °F - 60.1 °F 88% 30.06 in 10.0 mi Calm Calm - N/A   Scattered Clouds
8:55 AM 65.8 °F - 61.3 °F 85% 30.06 in 10.0 mi East 3.5 mph - N/A   Clear
9:15 AM 67.8 °F - 61.7 °F 81% 30.07 in 10.0 mi East 3.5 mph - N/A   Clear
9:35 AM 70.3 °F - 62.4 °F 76% 30.07 in 10.0 mi SE 4.6 mph - N/A   Clear
9:55 AM 71.8 °F - 62.6 °F 73% 30.07 in 10.0 mi ESE 5.8 mph - N/A   Clear
10:15 AM 73.8 °F - 62.1 °F 67% 30.07 in 10.0 mi SE 8.1 mph - N/A   Clear
10:35 AM 75.9 °F - 62.4 °F 63% 30.07 in 10.0 mi SE 10.4 mph - N/A   Clear
10:55 AM 76.8 °F - 61.9 °F 60% 30.07 in 10.0 mi SSE 9.2 mph - N/A   Clear
11:15 AM 77.9 °F - 61.9 °F 58% 30.06 in 10.0 mi SSE 9.2 mph - N/A   Clear
11:35 AM 79.0 °F - 62.1 °F 56% 30.06 in 10.0 mi SE 6.9 mph - N/A   Clear
11:55 AM 79.9 °F - 62.1 °F 54% 30.06 in 10.0 mi SSE 4.6 mph - N/A   Clear
12:15 PM 80.6 °F 81.7 °F 62.1 °F 53% 30.04 in 10.0 mi SE 6.9 mph - N/A   Scattered Clouds
12:35 PM 79.9 °F - 61.5 °F 53% 30.03 in 10.0 mi SSW 6.9 mph - N/A   Scattered Clouds
12:55 PM 81.5 °F 82.2 °F 61.3 °F 50% 30.02 in 10.0 mi SE 8.1 mph - N/A   Scattered Clouds
1:15 PM 81.1 °F 81.9 °F 60.8 °F 50% 30.01 in 10.0 mi South 6.9 mph - N/A   Scattered Clouds
1:35 PM 82.2 °F 82.7 °F 60.4 °F 48% 30.00 in 10.0 mi South 6.9 mph - N/A   Scattered Clouds
1:55 PM 83.3 °F 83.4 °F 59.9 °F 45% 29.99 in 10.0 mi SSE 11.5 mph - N/A   Scattered Clouds
2:15 PM 81.9 °F 82.2 °F 59.7 °F 47% 29.98 in 10.0 mi ESE 4.6 mph - N/A   Mostly Cloudy
2:35 PM 83.3 °F 83.2 °F 59.4 °F 44% 29.97 in 10.0 mi SSE 8.1 mph - N/A   Mostly Cloudy
2:55 PM 84.2 °F 84.2 °F 59.9 °F 44% 29.96 in 10.0 mi SE 8.1 mph - N/A   Scattered Clouds
3:15 PM 82.9 °F 83.0 °F 59.7 °F 45% 29.96 in 10.0 mi SSE 8.1 mph - N/A   Scattered Clouds
3:35 PM 83.7 °F 83.6 °F 59.7 °F 44% 29.95 in 10.0 mi South 9.2 mph - N/A   Scattered Clouds
3:55 PM 83.8 °F 84.0 °F 60.3 °F 45% 29.94 in 10.0 mi SE 6.9 mph - N/A   Scattered Clouds
4:15 PM 82.9 °F 83.2 °F 60.3 °F 46% 29.94 in 10.0 mi ESE 5.8 mph - N/A   Scattered Clouds
4:35 PM 84.7 °F 84.4 °F 59.4 °F 42% 29.93 in 10.0 mi ESE 6.9 mph 16.1 mph N/A   Clear
4:55 PM 83.5 °F 83.7 °F 60.6 °F 46% 29.93 in 10.0 mi ESE 6.9 mph - N/A   Scattered Clouds
5:15 PM 84.0 °F 84.2 °F 60.8 °F 45% 29.93 in 10.0 mi ESE 5.8 mph - N/A   Scattered Clouds
5:35 PM 83.3 °F 83.7 °F 61.2 °F 47% 29.93 in 10.0 mi ESE 5.8 mph - N/A   Mostly Cloudy
5:55 PM 82.6 °F 83.1 °F 61.3 °F 48% 29.92 in 10.0 mi ESE 5.8 mph - N/A   Scattered Clouds
6:15 PM 81.5 °F 82.1 °F 60.8 °F 49% 29.92 in 10.0 mi Calm Calm - N/A   Clear
6:35 PM 80.1 °F 81.1 °F 61.3 °F 53% 29.92 in 10.0 mi ESE 4.6 mph - N/A   Clear
6:55 PM 78.6 °F - 61.3 °F 55% 29.91 in 10.0 mi ESE 4.6 mph - N/A   Clear
7:15 PM 77.4 °F - 61.0 °F 57% 29.91 in 10.0 mi ESE 3.5 mph - N/A   Clear
7:35 PM 76.5 °F - 60.6 °F 58% 29.92 in 10.0 mi Calm Calm - N/A   Clear
7:55 PM 75.6 °F - 60.8 °F 60% 29.92 in 10.0 mi Calm Calm - N/A   Clear
8:15 PM 74.5 °F - 60.6 °F 62% 29.92 in 10.0 mi Calm Calm - N/A   Clear
8:35 PM 73.9 °F - 60.3 °F 62% 29.93 in 10.0 mi Calm Calm - N/A   Clear
8:55 PM 73.8 °F - 59.9 °F 62% 29.93 in 10.0 mi Calm Calm - N/A   Scattered Clouds
9:15 PM 73.8 °F - 59.9 °F 62% 29.94 in 10.0 mi East 3.5 mph - N/A   Scattered Clouds
9:35 PM 74.1 °F - 60.4 °F 62% 29.94 in 10.0 mi ESE 4.6 mph - N/A   Scattered Clouds
9:55 PM 74.3 °F - 62.2 °F 66% 29.94 in 10.0 mi SE 8.1 mph - N/A   Clear
10:15 PM 74.5 °F - 63.9 °F 69% 29.95 in 10.0 mi ESE 8.1 mph - N/A   Clear
10:35 PM 73.9 °F - 64.4 °F 72% 29.95 in 10.0 mi SE 10.4 mph - N/A   Clear
10:55 PM 73.4 °F - 64.6 °F 74% 29.95 in 10.0 mi SE 10.4 mph - N/A   Clear
11:15 PM 72.7 °F - 64.6 °F 76% 29.94 in 10.0 mi SE 9.2 mph - N/A   Clear
11:35 PM 72.3 °F - 64.4 °F 76% 29.94 in 10.0 mi SE 10.4 mph 16.1 mph N/A   Clear
11:55 PM 71.6 °F - 64.4 °F 78% 29.93 in 10.0 mi SE 9.2 mph - N/A   Clear